Ask Pathway Tools logo   Pathway Tools Question & Answer forum for SRI's Pathway Tools

Ask Your Question

Suzanne Paley's profile - karma

Suzanne Paley's karma change log

2 0 ptlisp - Error: Package "SELECT-ORGANISM" not found. ( 2019-05-28 23:03:16 -0500 )

2 0 error in 22.5: aclssl.so undefined symbol ( 2018-10-31 12:18:47 -0500 )

2 0 How to export regulation table from MetaCyc ( 2018-10-26 10:55:13 -0500 )

2 0 Ubuntu 18.04 LTS "Bionic Beaver" incompatible with ptools v.22 ( 2018-08-27 12:54:59 -0500 )

2 0 metabolite list highlight ( 2018-02-08 11:58:45 -0500 )

2 0 Where is the Tools: Propagate Metacyc Data Updates ( 2017-10-25 23:48:25 -0500 )

0 -2 Where is the Tools: Propagate Metacyc Data Updates ( 2017-10-25 23:48:01 -0500 )

2 0 How to publish my PGDB ( 2017-10-25 00:32:08 -0500 )

2 0 How to save pathway images with omics data overlaid? ( 2017-10-25 00:31:09 -0500 )

2 0 Server has no Mysql PGDB's ( 2017-10-25 00:26:49 -0500 )

2 0 installation ( 2017-10-25 00:26:22 -0500 )

0 -2 Kinetics of Metabolic Pathway ( 2017-10-25 00:24:45 -0500 )

2 0 Kinetics of Metabolic Pathway ( 2017-10-25 00:24:38 -0500 )

2 0 Km from flat files ( 2017-10-25 00:23:11 -0500 )

2 0 is pathway tools downloadable in pakistan? ( 2017-10-25 00:22:54 -0500 )

2 0 Pathway Tools won't start after upgrading XQuartz ( 2017-10-25 00:22:42 -0500 )

2 0 Looking at getSpontaneous() in .owl files. Confusion ensues. ( 2017-10-25 00:22:20 -0500 )

2 0 Identifying superpathways from pathways automatically ( 2017-10-25 00:22:00 -0500 )

2 0 Pathway tools web server behind nginx ( 2017-10-25 00:21:16 -0500 )

2 0 Which Blast database is needed with hole filler? ( 2017-10-25 00:20:59 -0500 )

2 0 how can I install pathway tool on HPC without root ( 2017-10-25 00:20:35 -0500 )

2 0 How do I perform a silent installation? ( 2017-10-25 00:20:00 -0500 )

2 0 Can I improve pathway calculation by adding Tier3 relatives? ( 2017-10-25 00:19:40 -0500 )

2 0 Where is my flagellum? ( 2017-10-25 00:19:16 -0500 )

2 0 How do I import a draft genome? ( 2017-10-25 00:18:48 -0500 )

2 0 Output Graphics to File? ( 2017-10-25 00:18:24 -0500 )

2 0 How to access pathway editor? ( 2017-10-25 00:17:46 -0500 )

2 0 How can you establish that only gene symbols are shown instead of enzyme names in Cellular Overview? ( 2017-10-25 00:17:21 -0500 )

2 0 Help with fatal error: The slot PROCESS is unbound... ( 2017-10-25 00:11:07 -0500 )

15 0 Draft genome & pathologic ( 2017-10-21 09:31:02 -0500 )

15 0 Accessing the pathway hierarchy ( 2017-08-15 05:10:10 -0500 )

0 -2 free sex live ( 2017-08-01 12:15:10 -0500 )

10 0 Omics data on pathway collage: Bad request ( 2016-09-01 13:18:08 -0500 )

15 0 Omics data on pathway collage: Bad request ( 2016-09-01 13:18:07 -0500 )

15 0 how to add plasmids ( 2016-07-05 12:12:39 -0500 )

10 0 how to add plasmids ( 2016-07-05 12:12:38 -0500 )

100 0 Changed by moderator. Reason: moderator ( 2015-06-18 04:14:47 -0500 )

100 0 Changed by moderator. Reason: moderator ( 2015-06-17 19:18:22 -0500 )